Regional Weather Roundup
Issued by NWS Albany, NY

Home | Current Version | Previous Version | Text Only | Print | Product List | Glossary On
Versions: 1 2 3 4 5 6 7 8 9 10 11 12 13 14 15 16 17 18 19 20 21 22 23 24 25 26 27 28 29 30 31 32 33 34 35 36 37 38 39 40 41 42 43 44 45 46 47 48 49 50
000
ASUS41 KALY 172010
RWRALY

NEW YORK STATE HOURLY WEATHER ROUNDUP
NATIONAL WEATHER SERVICE ALBANY NY
300 PM EST WED DEC 17 2014

NOTE: "FAIR" INDICATES FEW OR NO CLOUDS BELOW 12,000 FEET WITH NO
SIGNIFICANT WEATHER AND/OR NO OBSTRUCTIONS TO VISIBILITY.

NYZ032-033-038>043-046>054-057>066-NYZ062>081-172100-
EAST


CITY           SKY/WX    TMP DP  RH WIND       PRES   REMARKS
ALBANY         CLOUDY    41  37  86 W6        29.80R
GLENS FALLS    FOG       38  37  97 NE3       29.76R VSB 1
POUGHKEEPSIE   CLOUDY    50  37  61 W13G22    29.79R
NEWBURGH       PTSUNNY   46  37  71 NW14G23   29.81R
MONTGOMERY     CLOUDY    47  35  63 NW13G24   29.80R
WHITE PLAINS   PTSUNNY   49  36  61 W13       29.78R
ISLIP          CLOUDY    51  39  63 W12       29.78R
NEW YORK CITY  CLOUDY    51  36  56 W14       29.81R
CENTRAL PARK   CLOUDY    51  35  54 W9G17     29.83R
$$

NYZ005>009-017-018-044>046-055-056-172100-
CENTRAL


CITY           SKY/WX    TMP DP  RH WIND       PRES   REMARKS
FULTON         LGT RAIN  36  32  85 W10       29.85R WCI  28
SYRACUSE       LGT RAIN  35  33  92 W16       29.86R WCI  25
ROME           LGT RAIN  37  34  89 W17       29.86R WCI  27
ELMIRA         CLOUDY    41  30  65 W14G22    29.87R
BINGHAMTON     LGT SNOW  33  33 100 W9        29.83R FOG     WCI  25
MONTICELLO     CLOUDY    37  36  93 W12G18    29.82R WCI  30
$$

NYZ026>034-041>043-172100-
NORTH


CITY           SKY/WX    TMP DP  RH WIND       PRES   REMARKS
WATERTOWN      CLOUDY    39  33  79 SW14G25   29.81R WCI  31
FORT DRUM      NOT AVBL
MASSENA        LGT RAIN  37  34  89 SW8       29.76R WCI  31
SARANAC LAKE   MIX PCPN  35  32  88 W6        29.71R WCI  30
PLATTSBURGH    CLOUDY    37  37 100 CALM      29.74R FOG
$$

NYZ001>004-010>016-019>021-172100-
WEST


CITY           SKY/WX    TMP DP  RH WIND       PRES   REMARKS
NIAGARA FALLS  LGTSLEET  34  30  85 W22       29.91R FOG     WCI  22
BUFFALO        FLURRIES  34  27  75 W21G35    29.91R WCI  22
DUNKIRK        LGT SNOW  34  29  82 W16G35    29.97R WCI  24
JAMESTOWN      CLOUDY    28  27  93 W14       29.94R VSB 1/2 WCI  17
WELLSVILLE     CLOUDY    33  24  69 W20G31    29.87S WCI  21
ROCHESTER      CLOUDY    37  30  75 W17G30    29.87R WCI  27
PENN YAN       CLOUDY    38  29  70 SW17G29   29.86R WCI  28
$$

             KEY
       WCI = WIND CHILL INDEX
       VSB = VISIBILITY
       HX  = HEAT INDEX
$$


USA.gov is the U.S. government's official web portal to all federal, state and local government web resources and services.